EUTELSAT 48D

Last updated on Jan. 27, 2020, 4:38 a.m. UTC

1 33460U 08065B   20026.40257591  .00000117  00000-0  00000-0 0  9997
2 33460   0.0477 333.3315 0002185 320.7137  24.1784  1.00272806 40574
UTC
Height (km)
Latitude
Longitude
Inclination
Orbital Period
UTC large
Height (km)
Speed (km/s)
/
Latitude / Longitude
Inclination (degrees)
Orbital Period (minutes)
Azimuth
Elevation
Range (km)
Doppler Factor
iOS Compass Heading
iOS Angle

Next 30 passes for location: Hong Kong

Rise time Rise Azimuth (degrees) Set time Set Azimuth (degrees) Duration Max altitude (degrees)

No matching passes for this satellites